This is the latest recevied weather packets stored in our database for station/object KC3ELT-10. If no packets are shown the sender has not sent any weather packets the latest 10 day(s).
| Time | Temp. | Humidity | Pressure | Rain* | Wind** | Luminosity | Snow |
|---|---|---|---|---|---|---|---|
| 1777327678 | 18.89° C | 43% | 1017.2 hPa | 0 mm | 0.45 m/s, 155° | - | - |
| 1777327378 | 19.44° C | 42% | 1017.2 hPa | 0 mm | 1.34 m/s, 122° | - | - |
| 1777327078 | 19.44° C | 43% | 1017.1 hPa | 0 mm | 0.89 m/s, 98° | - | - |
| 1777326778 | 19.44° C | 39% | 1017.1 hPa | 0 mm | 2.24 m/s, 117° | - | - |
| 1777326478 | 19.44° C | 40% | 1017.1 hPa | 0 mm | 0.45 m/s, 108° | - | - |
| 1777326178 | 19.44° C | 42% | 1017.1 hPa | 0 mm | 0 m/s | - | - |
| 1777325878 | 19.44° C | 41% | 1017.1 hPa | 0 mm | 0.89 m/s, 141° | - | - |
| 1777325578 | 19.44° C | 40% | 1017.1 hPa | 0 mm | 1.79 m/s, 134° | - | - |
| 1777325278 | 19.44° C | 39% | 1017.2 hPa | 0 mm | 2.68 m/s, 203° | - | - |
| 1777324978 | 19.44° C | 42% | 1017.2 hPa | 0 mm | 2.68 m/s, 148° | - | - |
| 1777324678 | 19.44° C | 42% | 1017.2 hPa | 0 mm | 0 m/s | - | - |
| 1777324378 | 19.44° C | 43% | 1017.2 hPa | 0 mm | 0.45 m/s, 156° | - | - |
| 1777324078 | 19.44° C | 41% | 1017.2 hPa | 0 mm | 1.79 m/s, 225° | - | - |
| 1777323778 | 19.44° C | 41% | 1017.2 hPa | 0 mm | 0.89 m/s, 148° | - | - |
| 1777323478 | 20° C | 43% | 1017.2 hPa | 0 mm | 1.79 m/s, 191° | - | - |
| 1777323178 | 20° C | 41% | 1017.2 hPa | 0 mm | 1.34 m/s, 139° | - | - |
| 1777322879 | 20° C | 41% | 1017.2 hPa | 0 mm | 1.34 m/s, 224° | - | - |
| 1777322578 | 20° C | 42% | 1017.4 hPa | 0 mm | 0.45 m/s, 288° | - | - |
| 1777322278 | 20.56° C | 44% | 1017.4 hPa | 0 mm | 1.79 m/s, 161° | - | - |
| 1777321978 | 20.56° C | 41% | 1017.4 hPa | 0 mm | 1.34 m/s, 139° | - | - |
| 1777321678 | 20.56° C | 39% | 1017.2 hPa | 0 mm | 0.89 m/s, 148° | - | - |
| 1777321378 | 20.56° C | 39% | 1017.2 hPa | 0 mm | 0.45 m/s, 359° | - | - |
| 1777321078 | 20.56° C | 38% | 1017.2 hPa | 0 mm | 0.45 m/s, 333° | - | - |
| 1777320779 | 21.11° C | 41% | 1017.5 hPa | 0 mm | 0 m/s | - | - |
| 1777320478 | 20.56° C | 41% | 1017.5 hPa | 0 mm | 0.89 m/s, 116° | - | - |
* Rain latest hour (hover to see other rain measurements)
** Current wind speed in m/s (hover to see current wind gust speed)